Time,TemperatureF,DewpointF,PressureIn,WindDirection,WindDirectionDegrees,WindSpeedMPH,WindSpeedGustMPH,Humidity,HourlyPrecipIn,Conditions,Clouds,dailyrainin,SoftwareType,DateUTC
2013-02-12 00:09:00,48.2,30.0,29.80,West,278,5.0,11.0,50,0.00,,,0.00,weatherlink.com 1.10,2013-02-12 05:09:00,
2013-02-12 00:24:00,48.0,30.0,29.80,WNW,295,7.0,12.0,50,0.00,,,0.00,weatherlink.com 1.10,2013-02-12 05:24:00,
2013-02-12 00:39:00,48.4,27.0,29.80,NW,316,33.0,33.0,43,0.00,,,0.00,weatherlink.com 1.10,2013-02-12 05:39:00,
2013-02-12 00:54:00,49.0,26.0,29.80,West,275,18.0,32.0,41,0.00,,,0.00,weatherlink.com 1.10,2013-02-12 05:54:00,
2013-02-12 01:09:00,48.6,26.0,29.80,NW,307,6.0,35.0,42,0.00,,,0.00,weatherlink.com 1.10,2013-02-12 06:09:00,
2013-02-12 01:24:00,48.2,26.0,29.80,SW,221,6.0,25.0,43,0.00,,,0.00,weatherlink.com 1.10,2013-02-12 06:24:00,
2013-02-12 01:39:00,47.8,26.0,29.81,WNW,285,11.0,20.0,43,0.00,,,0.00,weatherlink.com 1.10,2013-02-12 06:39:00,
2013-02-12 01:54:00,48.0,27.0,29.81,NNW,327,6.0,25.0,44,0.00,,,0.00,weatherlink.com 1.10,2013-02-12 06:54:00,
2013-02-12 02:09:00,48.0,27.0,29.82,WNW,289,12.0,23.0,44,0.00,,,0.00,weatherlink.com 1.10,2013-02-12 07:09:00,
2013-02-12 02:24:00,47.8,27.0,29.82,WNW,282,16.0,24.0,44,0.00,,,0.00,weatherlink.com 1.10,2013-02-12 07:24:00,
2013-02-12 02:39:00,47.8,27.0,29.82,NW,315,6.0,26.0,44,0.00,,,0.00,weatherlink.com 1.10,2013-02-12 07:39:00,
2013-02-12 02:54:00,47.5,27.0,29.82,WNW,290,8.0,16.0,45,0.00,,,0.00,weatherlink.com 1.10,2013-02-12 07:54:00,
2013-02-12 03:09:00,46.8,28.0,29.82,WNW,300,5.0,9.0,48,0.00,,,0.00,weatherlink.com 1.10,2013-02-12 08:09:00,
2013-02-12 03:24:00,46.8,27.0,29.82,WNW,298,13.0,22.0,47,0.00,,,0.00,weatherlink.com 1.10,2013-02-12 08:24:00,
2013-02-12 03:40:00,46.5,27.0,29.82,North,350,5.0,21.0,47,0.00,,,0.00,weatherlink.com 1.10,2013-02-12 08:40:00,
2013-02-12 03:55:00,46.2,26.0,29.82,NW,305,9.0,16.0,46,0.00,,,0.00,weatherlink.com 1.10,2013-02-12 08:55:00,
2013-02-12 04:10:00,45.8,25.0,29.83,West,279,13.0,23.0,45,0.00,,,0.00,weatherlink.com 1.10,2013-02-12 09:10:00,
2013-02-12 04:25:00,45.5,25.0,29.83,NW,315,7.0,15.0,45,0.00,,,0.00,weatherlink.com 1.10,2013-02-12 09:25:00,
2013-02-12 04:40:00,44.9,25.0,29.84,WNW,301,3.0,12.0,45,0.00,,,0.00,weatherlink.com 1.10,2013-02-12 09:40:00,
2013-02-12 04:55:00,44.6,25.0,29.84,NW,313,1.0,9.0,46,0.00,,,0.00,weatherlink.com 1.10,2013-02-12 09:55:00,
2013-02-12 05:10:00,44.3,25.0,29.85,WNW,288,1.0,9.0,46,0.00,,,0.00,weatherlink.com 1.10,2013-02-12 10:10:00,
2013-02-12 05:25:00,43.9,25.0,29.84,WSW,247,1.0,8.0,47,0.00,,,0.00,weatherlink.com 1.10,2013-02-12 10:25:00,
2013-02-12 05:40:00,42.9,25.0,29.85,WNW,300,2.0,5.0,49,0.00,,,0.00,weatherlink.com 1.10,2013-02-12 10:40:00,
2013-02-12 05:55:00,42.6,24.0,29.85,WSW,237,2.0,5.0,49,0.00,,,0.00,weatherlink.com 1.10,2013-02-12 10:55:00,
2013-02-12 06:10:00,43.2,25.0,29.86,WNW,282,2.0,7.0,48,0.00,,,0.00,weatherlink.com 1.10,2013-02-12 11:10:00,
2013-02-12 06:25:00,42.4,24.0,29.86,NW,309,0.0,5.0,49,0.00,,,0.00,weatherlink.com 1.10,2013-02-12 11:25:00,
2013-02-12 06:40:00,41.3,25.0,29.86,WSW,255,0.0,2.0,52,0.00,,,0.00,weatherlink.com 1.10,2013-02-12 11:40:00,
2013-02-12 06:55:00,39.7,25.0,29.87,SSE,161,0.0,0.0,55,0.00,,,0.00,weatherlink.com 1.10,2013-02-12 11:55:00,
2013-02-12 07:10:00,37.8,24.0,29.88,SSE,161,0.0,0.0,59,0.00,,,0.00,weatherlink.com 1.10,2013-02-12 12:10:00,
2013-02-12 07:25:00,35.9,24.0,29.88,SE,133,0.0,2.0,63,0.00,,,0.00,weatherlink.com 1.10,2013-02-12 12:25:00,
2013-02-12 07:40:00,35.4,25.0,29.88,SE,133,0.0,0.0,66,0.00,,,0.00,weatherlink.com 1.10,2013-02-12 12:40:00,
2013-02-12 07:55:00,36.9,26.0,29.89,SE,133,0.0,2.0,66,0.00,,,0.00,weatherlink.com 1.10,2013-02-12 12:55:00,
2013-02-12 08:10:00,40.0,27.0,29.90,ESE,116,0.0,3.0,61,0.00,,,0.00,weatherlink.com 1.10,2013-02-12 13:10:00,
2013-02-12 08:26:00,42.2,27.0,29.90,NNE,23,2.0,4.0,55,0.00,,,0.00,weatherlink.com 1.10,2013-02-12 13:26:00,
2013-02-12 08:41:00,45.7,27.0,29.90,SE,146,1.0,4.0,49,0.00,,,0.00,weatherlink.com 1.10,2013-02-12 13:41:00,
2013-02-12 08:56:00,47.5,27.0,29.91,SE,137,1.0,2.0,45,0.00,,,0.00,weatherlink.com 1.10,2013-02-12 13:56:00,
2013-02-12 09:11:00,47.3,25.0,29.91,WNW,302,3.0,13.0,42,0.00,,,0.00,weatherlink.com 1.10,2013-02-12 14:11:00,
2013-02-12 09:26:00,47.7,25.0,29.92,NW,323,6.0,11.0,42,0.00,,,0.00,weatherlink.com 1.10,2013-02-12 14:26:00,
2013-02-12 09:41:00,47.9,25.0,29.92,NW,318,5.0,10.0,41,0.00,,,0.00,weatherlink.com 1.10,2013-02-12 14:41:00,
2013-02-12 09:56:00,48.5,26.0,29.93,NW,314,3.0,10.0,41,0.00,,,0.00,weatherlink.com 1.10,2013-02-12 14:56:00,
2013-02-12 10:11:00,49.1,25.0,29.93,WNW,283,2.0,14.0,39,0.00,,,0.00,weatherlink.com 1.10,2013-02-12 15:11:00,
2013-02-12 10:26:00,49.6,25.0,29.93,NW,309,10.0,12.0,38,0.00,,,0.00,weatherlink.com 1.10,2013-02-12 15:26:00,
2013-02-12 10:41:00,49.8,26.0,29.93,NW,316,4.0,11.0,40,0.00,,,0.00,weatherlink.com 1.10,2013-02-12 15:41:00,
2013-02-12 10:56:00,50.4,25.0,29.93,NNE,25,2.0,11.0,38,0.00,,,0.00,weatherlink.com 1.10,2013-02-12 15:56:00,
2013-02-12 11:11:00,50.5,26.0,29.93,North,6,8.0,12.0,38,0.00,,,0.00,weatherlink.com 1.10,2013-02-12 16:11:00,
2013-02-12 11:26:00,50.8,26.0,29.93,NNW,327,2.0,11.0,38,0.00,,,0.00,weatherlink.com 1.10,2013-02-12 16:26:00,
2013-02-12 11:41:00,51.3,26.0,29.93,North,351,4.0,10.0,38,0.00,,,0.00,weatherlink.com 1.10,2013-02-12 16:41:00,
2013-02-12 11:56:00,51.9,26.0,29.93,NW,308,4.0,15.0,36,0.00,,,0.00,weatherlink.com 1.10,2013-02-12 16:56:00,
2013-02-12 12:11:00,52.4,27.0,29.92,West,275,8.0,18.0,37,0.00,,,0.00,weatherlink.com 1.10,2013-02-12 17:11:00,
2013-02-12 12:26:00,52.9,26.0,29.92,WNW,284,7.0,16.0,36,0.00,,,0.00,weatherlink.com 1.10,2013-02-12 17:26:00,
2013-02-12 12:41:00,53.0,27.0,29.91,NW,322,10.0,16.0,36,0.00,,,0.00,weatherlink.com 1.10,2013-02-12 17:41:00,
2013-02-12 12:56:00,53.4,28.0,29.91,NW,310,5.0,16.0,37,0.00,,,0.00,weatherlink.com 1.10,2013-02-12 17:56:00,
2013-02-12 13:11:00,53.7,26.0,29.89,NW,307,4.0,12.0,35,0.00,,,0.00,weatherlink.com 1.10,2013-02-12 18:11:00,
2013-02-12 13:26:00,53.9,27.0,29.88,NNW,333,3.0,10.0,35,0.00,,,0.00,weatherlink.com 1.10,2013-02-12 18:26:00,
2013-02-12 13:41:00,54.3,26.0,29.87,NW,308,10.0,10.0,34,0.00,,,0.00,weatherlink.com 1.10,2013-02-12 18:41:00,
2013-02-12 13:56:00,54.1,26.0,29.88,NNW,337,4.0,13.0,34,0.00,,,0.00,weatherlink.com 1.10,2013-02-12 18:56:00,
2013-02-12 14:11:00,54.6,26.0,29.86,NW,307,5.0,13.0,33,0.00,,,0.00,weatherlink.com 1.10,2013-02-12 19:11:00,
2013-02-12 14:26:00,54.8,25.0,29.82,WNW,293,4.0,12.0,32,0.00,,,0.00,weatherlink.com 1.10,2013-02-12 19:26:00,
2013-02-12 14:41:00,54.4,25.0,29.81,NW,311,4.0,10.0,32,0.00,,,0.00,weatherlink.com 1.10,2013-02-12 19:41:00,
2013-02-12 14:56:00,54.6,24.0,29.81,NW,313,2.0,10.0,31,0.00,,,0.00,weatherlink.com 1.10,2013-02-12 19:56:00,
2013-02-12 15:11:00,55.0,23.0,29.84,WNW,298,8.0,11.0,29,0.00,,,0.00,weatherlink.com 1.10,2013-02-12 20:11:00,
2013-02-12 15:26:00,55.1,23.0,29.87,WNW,302,4.0,13.0,29,0.00,,,0.00,weatherlink.com 1.10,2013-02-12 20:26:00,
2013-02-12 15:41:00,56.0,24.0,29.87,WNW,296,2.0,12.0,29,0.00,,,0.00,weatherlink.com 1.10,2013-02-12 20:41:00,
2013-02-12 15:56:00,56.4,24.0,29.86,WNW,286,2.0,12.0,29,0.00,,,0.00,weatherlink.com 1.10,2013-02-12 20:56:00,
2013-02-12 16:11:00,56.9,24.0,29.86,NW,316,4.0,7.0,28,0.00,,,0.00,weatherlink.com 1.10,2013-02-12 21:11:00,
2013-02-12 16:26:00,57.0,24.0,29.86,NNW,327,4.0,8.0,28,0.00,,,0.00,weatherlink.com 1.10,2013-02-12 21:26:00,
2013-02-12 16:42:00,57.7,23.0,29.85,NW,312,2.0,4.0,26,0.00,,,0.00,weatherlink.com 1.10,2013-02-12 21:42:00,
2013-02-12 16:57:00,57.2,22.0,29.86,NW,325,1.0,4.0,26,0.00,,,0.00,weatherlink.com 1.10,2013-02-12 21:57:00,
2013-02-12 17:12:00,55.2,23.0,29.87,NNW,331,2.0,4.0,29,0.00,,,0.00,weatherlink.com 1.10,2013-02-12 22:12:00,
2013-02-12 17:27:00,53.8,24.0,29.88,NNW,342,0.0,2.0,32,0.00,,,0.00,weatherlink.com 1.10,2013-02-12 22:27:00,
2013-02-12 17:42:00,51.7,25.0,29.89,East,89,0.0,2.0,35,0.00,,,0.00,weatherlink.com 1.10,2013-02-12 22:42:00,
2013-02-12 18:12:00,47.8,23.0,29.89,NW,324,2.0,3.0,38,0.00,,,0.00,weatherlink.com 1.10,2013-02-12 23:12:00,
2013-02-12 18:27:00,48.2,23.0,29.90,NW,316,0.0,3.0,38,0.00,,,0.00,weatherlink.com 1.10,2013-02-12 23:27:00,
2013-02-12 18:42:00,47.0,23.0,29.91,NNE,13,1.0,4.0,39,0.00,,,0.00,weatherlink.com 1.10,2013-02-12 23:42:00,
2013-02-12 18:57:00,49.4,23.0,29.90,NW,319,2.0,8.0,36,0.00,,,0.00,weatherlink.com 1.10,2013-02-12 23:57:00,
2013-02-12 19:12:00,47.6,24.0,29.90,WNW,300,1.0,2.0,39,0.00,,,0.00,weatherlink.com 1.10,2013-02-13 00:12:00,
2013-02-12 19:27:00,47.9,23.0,29.88,NNW,341,1.0,6.0,38,0.00,,,0.00,weatherlink.com 1.10,2013-02-13 00:27:00,
2013-02-12 19:42:00,48.1,23.0,29.88,NNW,328,1.0,3.0,37,0.00,,,0.00,weatherlink.com 1.10,2013-02-13 00:42:00,
2013-02-12 19:57:00,47.0,23.0,29.87,North,353,1.0,3.0,39,0.00,,,0.00,weatherlink.com 1.10,2013-02-13 00:57:00,
2013-02-12 20:12:00,46.0,23.0,29.87,NW,325,1.0,3.0,40,0.00,,,0.00,weatherlink.com 1.10,2013-02-13 01:12:00,
2013-02-12 20:27:00,45.7,22.0,29.87,NW,320,1.0,4.0,40,0.00,,,0.00,weatherlink.com 1.10,2013-02-13 01:27:00,
2013-02-12 20:42:00,44.4,23.0,29.87,NW,304,0.0,2.0,43,0.00,,,0.00,weatherlink.com 1.10,2013-02-13 01:42:00,
2013-02-12 20:57:00,41.9,24.0,29.88,SSW,212,0.0,0.0,49,0.00,,,0.00,weatherlink.com 1.10,2013-02-13 01:57:00,
2013-02-12 21:12:00,39.9,24.0,29.88,WSW,251,0.0,0.0,54,0.00,,,0.00,weatherlink.com 1.10,2013-02-13 02:12:00,
2013-02-12 21:27:00,38.3,25.0,29.89,SSE,150,0.0,0.0,59,0.00,,,0.00,weatherlink.com 1.10,2013-02-13 02:27:00,
2013-02-12 21:42:00,37.2,25.0,29.89,SSE,151,0.0,0.0,62,0.00,,,0.00,weatherlink.com 1.10,2013-02-13 02:42:00,
2013-02-12 21:57:00,36.8,25.0,29.89,SSE,151,0.0,0.0,62,0.00,,,0.00,weatherlink.com 1.10,2013-02-13 02:57:00,
2013-02-12 22:12:00,36.5,24.0,29.89,SSE,151,1.0,2.0,62,0.00,,,0.00,weatherlink.com 1.10,2013-02-13 03:12:00,
2013-02-12 22:27:00,36.2,25.0,29.89,SSE,160,0.0,0.0,65,0.00,,,0.00,weatherlink.com 1.10,2013-02-13 03:27:00,
2013-02-12 22:42:00,35.9,25.0,29.88,SSE,160,0.0,0.0,66,0.00,,,0.00,weatherlink.com 1.10,2013-02-13 03:42:00,
2013-02-12 22:57:00,35.2,26.0,29.88,WSW,244,0.0,0.0,68,0.00,,,0.00,weatherlink.com 1.10,2013-02-13 03:57:00,
2013-02-12 23:12:00,34.9,26.0,29.89,WSW,244,0.0,0.0,69,0.00,,,0.00,weatherlink.com 1.10,2013-02-13 04:12:00,
2013-02-12 23:27:00,34.4,25.0,29.88,SSE,153,2.0,3.0,69,0.00,,,0.00,weatherlink.com 1.10,2013-02-13 04:27:00,
2013-02-12 23:42:00,34.2,25.0,29.89,WSW,256,0.0,1.0,70,0.00,,,0.00,weatherlink.com 1.10,2013-02-13 04:42:00,
2013-02-12 23:57:00,33.7,25.0,29.87,NNW,340,1.0,2.0,70,0.00,,,0.00,weatherlink.com 1.10,2013-02-13 04:57:00,